Weather in Kamenniki

Russia / Yaroslavl Oblast     58°09′07″N   38°39′40″E
temp.,
°C
wind,
m/s
gust,
m/s
humid.,
%
clouds,
%
prec.,
mm/h
press.,
hPa
HPBL,
m
23 september, thu
thu2300:00+7ese71095100 0.8 1016538
03:00+8ese589571 0.8 1017389
06:00+8ese5894100 0.0 1017400
09:00+8ese5994100 0.1 1016451
12:00+10ese6990100 0.1 1015658
15:00+9ese5895100 2.1 1014397
18:00+9ese61191100 1.7 1011755
21:00+10sse71096100 3.1 1010732
24 september, fri
fri2400:00+9sse6892100 0.1 1009419
03:00+8sse6993100 0.1 1008443
06:00+8sse699499 0.0 1007405
09:00+9sse7118763 0.1 1006692
12:00+10sse81178100 0.1 10061084
15:00+10sse6975100 0.5 10051130
18:00+9se7117989 0.1 1006853
21:00+9se71179100 0.1 1006786
25 september, sat
sat2500:00+9se6108178 0.0 1006634
03:00+8ese4786100 0.1 1004277
06:00+8se61082100 0.1 1007456
09:00+8sse5982100 0.1 1007479
12:00+9sse5978100 0.1 1008595
15:00+10sse4677100 0.2 1008524
18:00+10s4581100 0.0 1009405
21:00+9s3484100 0.0 1009240
26 september, sun
sun2600:00+9s4585100 0.3 1008182
03:00+9ssw228591 0.9 1009117
06:00+9ssw2284100 0.4 1009119
09:00+9sw118498 0.7 1010146
12:00+10wnw228098 0.1 1012255
15:00+11n457796 0.2 1014368
18:00+10nne4781100 0.4 1016386
21:00+9ne578797 0.6 1018289
27 september, mon
mon2700:00+9ne588973 0.1 1020347
03:00+9ne6987100 0.1 1022462
06:00+8ne61090100 0.1 1024477
09:00+9ne6990100 0.1 1025562
12:00+11ene687879 0.0 1027800
15:00+11ene6775100 0.1 1029993
18:00+10ene5781100 0.1 1031665
21:00+8e6885100 0.2 1033644